User: anonymous   Login
Location: Muenchen
(48.1800°N, 11.5800°E)
Time: 03:22:39
(UTC+02:00)
Language:

Tiros 1 - Orbit

View from above orbital plane
View from above orbital plane
View from above satellite
View from above satellite

Ground track
Ground track

The orbit data is extracted from the following two-line orbital elements,

1 00029U 60002B   15215.10805712  .00000146  00000-0  53063-4 0  9999
2 00029 048.3802 068.3951 0024225 178.8502 181.2469 14.73857052955985
Epoch (UTC): 03 August 2015 02:35:36
Eccentricity: 0.0024225
inclination: 48.3802°
perigee height: 632 km
apogee height: 666 km
right ascension of ascending node: 68.3951°
argument of perigee: 178.8502°
revolutions per day: 14.73857052
mean anomaly at epoch: 181.2469°
orbit number at epoch: 95598

The dashed part of the orbit path shows where the satellite is in the earth's shadow,  

DLR